Home > Weather > Mons > Past weeks

Flag for Belgium Past Weather in Mons, Belgium — Yesterday and Last 2 Weeks

Now
70 °F

Broken clouds.


Feels Like: 70 °F
Forecast: 61 / 72 °F
Wind: 10 mph from Southwest

Location: Chievres

Current Time: Jul 28, 2016 at 12:34:26 PM

Latest Report: Jul 28, 2016 at 11:55 AM


Visibility: N/A

Pressure: 30.01 "Hg

Humidity: 64%

Dew Point: 57 °F

Location of MonsLocation

Past Weather in Mons — Graph

°F

Mons Temperature Yesterday

Maximum temperature yesterday: 72 °F (at 3:55 PM)
Minimum temperature yesterday: 52 °F (at 5:25 AM)
Average temperature yesterday: 62 °F

High & Low Weather Summary for the Past Weeks

 TemperatureHumidityPressure
High88 °F (Jul 19, 3:55 PM)100% (Jul 13, 11:25 AM)30.33 "Hg (Jul 13, 11:25 AM)
Low48 °F (Jul 15, 12:25 AM)38% (Jul 19, 3:55 PM)29.86 "Hg (Jul 20, 9:55 AM)
Average67 °F77%30.12 "Hg
* Reported Jul 13 11:25 AM — Jul 28 11:25 AM, Mons, Weather by CustomWeather, © 2016

Note: Actual official high and low records may vary slightly from our data, if they occured in-between our weather recording intervals... More about our weather records

Advertising

Mons Weather History for the Previous 24 Hours

Scroll right to see more
 ConditionsComfort  
Time TempWeatherWind HumidityBarometerVisibility
11:25 AM
Thu, Jul 28
70 °FScattered clouds.10 mph73%30.01 "HgN/A
10:55 AM68 °FBroken clouds.12 mph78%30.01 "HgN/A
10:25 AM66 °FPartly sunny.12 mph83%30.01 "HgN/A
9:55 AM64 °FPartly sunny.10 mph88%30.01 "HgN/A
9:25 AM64 °FLow clouds.9 mph88%29.98 "HgN/A
8:55 AM64 °FBroken clouds.9 mph94%29.98 "HgN/A
8:25 AM64 °FPartly sunny.9 mph94%29.98 "HgN/A
7:55 AM64 °FPartly sunny.6 mph94%29.98 "HgN/A
6:55 AM63 °FLow clouds.7 mph100%29.98 "Hg5 mi
6:25 AM63 °FOvercast.9 mph94%29.98 "HgN/A
5:55 AM63 °FOvercast.7 mph94%29.98 "HgN/A
5:25 AM63 °FLow clouds.5 mph94%29.98 "HgN/A
4:55 AM63 °FHeavy rain. Low clouds.7 mph100%30.01 "Hg2 mi
4:25 AM63 °FOvercast.5 mph100%30.01 "Hg4 mi
3:55 AM63 °FOvercast.5 mph100%30.01 "Hg5 mi
3:25 AM64 °FOvercast.5 mph94%30.01 "Hg6 mi
2:55 AM64 °FOvercast.6 mph94%30.01 "HgN/A
2:25 AM64 °FOvercast.6 mph88%30.04 "HgN/A
1:55 AM64 °FOvercast.7 mph94%30.04 "HgN/A
1:25 AM64 °FOvercast.3 mph94%30.04 "HgN/A
12:55 AM64 °FPassing clouds.3 mph94%30.04 "HgN/A
12:25 AM64 °FPassing clouds.6 mph88%30.04 "HgN/A
11:55 PM
Wed, Jul 27
64 °FOvercast.7 mph88%30.04 "HgN/A
11:25 PM64 °FPartly cloudy.6 mph88%30.04 "HgN/A
10:55 PM64 °FOvercast.3 mph88%30.04 "HgN/A
10:25 PM64 °FPartly sunny.5 mph88%30.04 "HgN/A
9:55 PM64 °FLight rain. Mostly cloudy.3 mph88%30.04 "Hg2 mi
9:25 PM66 °FPartly sunny.3 mph83%30.04 "HgN/A
8:55 PM64 °FPartly sunny.2 mph88%30.04 "HgN/A
8:25 PM64 °FOvercast.7 mph88%30.04 "HgN/A
7:55 PM68 °FOvercast.7 mph73%30.04 "HgN/A
7:25 PM68 °FOvercast.6 mph69%30.04 "HgN/A
6:55 PM70 °FOvercast.9 mph64%30.04 "HgN/A
6:25 PM70 °FOvercast.8 mph64%30.04 "HgN/A
5:55 PM70 °FOvercast.12 mph60%30.04 "HgN/A
5:25 PM70 °FPartly sunny.12 mph64%30.04 "HgN/A
4:55 PM70 °FPartly sunny.12 mph64%30.04 "HgN/A
3:55 PM72 °FPartly sunny.13 mph61%30.04 "HgN/A
3:25 PM70 °FPartly sunny.14 mph60%30.07 "HgN/A
2:55 PM70 °FBroken clouds.12 mph64%30.07 "HgN/A
2:25 PM68 °FOvercast.12 mph64%30.07 "HgN/A
1:55 PM68 °FOvercast.9 mph64%30.07 "HgN/A
1:25 PM68 °FPartly sunny.10 mph69%30.07 "HgN/A
12:55 PM68 °FPartly sunny.9 mph69%30.07 "HgN/A
12:25 PM66 °FPartly sunny.10 mph73%30.09 "HgN/A
Weather by CustomWeather, © 2016

See weather overviewHow to use our weather pages